| time (UTC) | temp C | wind direction | speed KPH | gust KPH | rain 1hr cm | rain 24hr cm | rain mn cm | humidity % | barometer mb |
| 20260503200058 | 12 | 36 | 0.0 | 1.6 | 0.00 | 0.46 | 0.46 | 86 | 1013.9 |
| 20260503194600 | 12 | 36 | 0.0 | 3.2 | 0.00 | 0.46 | 0.46 | 86 | 1013.7 |
| 20260503193056 | 13 | 36 | 0.0 | 6.4 | 0.00 | 0.46 | 0.46 | 85 | 1013.5 |
| 20260503191555 | 13 | 37 | 1.6 | 4.8 | 0.00 | 0.46 | 0.46 | 86 | 1013.3 |
| 20260503190055 | 13 | 18 | 0.0 | 3.2 | 0.00 | 0.46 | 0.46 | 85 | 1013.1 |
| 20260503184557 | 13 | 18 | 1.6 | 4.8 | 0.00 | 0.56 | 0.46 | 84 | 1013.2 |
| 20260503183054 | 13 | 28 | 1.6 | 6.4 | 0.00 | 0.56 | 0.46 | 85 | 1013.2 |
| 20260503181553 | 13 | 26 | 1.6 | 4.8 | 0.00 | 0.56 | 0.46 | 85 | 1013.2 |
| 20260503180059 | 13 | 15 | 0.0 | 6.4 | 0.00 | 0.56 | 0.46 | 85 | 1013.2 |
| 20260503174558 | 13 | 9 | 0.0 | 4.8 | 0.00 | 0.86 | 0.46 | 84 | 1013.3 |
| 20260503173052 | 14 | 11 | 1.6 | 4.8 | 0.00 | 0.86 | 0.46 | 83 | 1013.2 |
| 20260503171552 | 14 | 28 | 1.6 | 4.8 | 0.00 | 0.86 | 0.46 | 82 | 1013.0 |
| 20260503081502 | 12 | 250 | 0.0 | 0.0 | 0.00 | 2.21 | 0.41 | 97 | 1013.2 |
| 20260503071613 | 11 | 250 | 0.0 | 1.6 | 0.00 | 2.21 | 0.41 | 97 | 1013.0 |
| 20260503060110 | 11 | 253 | 1.6 | 4.8 | 0.03 | 2.21 | 0.41 | 97 | 1012.6 |
| 20260503054558 | 11 | 251 | 1.6 | 4.8 | 0.00 | 2.18 | 0.38 | 97 | 1012.5 |
| 20260503053050 | 11 | 251 | 1.6 | 6.4 | 0.00 | 2.18 | 0.38 | 97 | 1012.5 |
| 20260503051549 | 11 | 253 | 1.6 | 6.4 | 0.00 | 2.18 | 0.38 | 97 | 1012.4 |
| 20260503050049 | 11 | 254 | 0.0 | 3.2 | 0.00 | 2.18 | 0.38 | 97 | 1012.4 |
| 20260503044548 | 11 | 254 | 0.0 | 3.2 | 0.00 | 2.18 | 0.38 | 97 | 1012.3 |
| 20260503043049 | 11 | 254 | 0.0 | 3.2 | 0.00 | 2.18 | 0.38 | 97 | 1012.4 |
| 20260503041546 | 11 | 254 | 0.0 | 1.6 | 0.00 | 2.18 | 0.38 | 97 | 1012.4 |
| 20260503040059 | 11 | 254 | 0.0 | 1.6 | 0.00 | 2.18 | 0.38 | 97 | 1012.5 |
| 20260503034545 | 11 | 254 | 0.0 | 1.6 | 0.00 | 2.18 | 0.38 | 97 | 1012.6 |
| 20260503033043 | 11 | 254 | 0.0 | 3.2 | 0.00 | 2.18 | 0.38 | 97 | 1012.7 |
| 20260503031550 | 11 | 254 | 0.0 | 3.2 | 0.00 | 2.18 | 0.38 | 97 | 1012.7 |
| 20260503030047 | 11 | 254 | 0.0 | 1.6 | 0.03 | 2.18 | 0.38 | 97 | 1012.6 |
| 20260503024538 | 12 | 254 | 0.0 | 1.6 | 0.03 | 2.18 | 0.38 | 97 | 1012.7 |
| 20260503023038 | 12 | 254 | 0.0 | 1.6 | 0.05 | 2.18 | 0.38 | 97 | 1012.7 |
| 20260503021536 | 12 | 254 | 0.0 | 3.2 | 0.05 | 2.18 | 0.38 | 97 | 1012.8 |
| 20260503020037 | 12 | 254 | 0.0 | 0.0 | 0.05 | 2.16 | 0.36 | 98 | 1012.9 |
| 20260503014533 | 12 | 254 | 0.0 | 0.0 | 0.03 | 2.13 | 0.33 | 97 | 1013.0 |
| 20260503013036 | 12 | 254 | 0.0 | 1.6 | 0.03 | 2.13 | 0.33 | 97 | 1013.2 |
| 20260503011531 | 12 | 254 | 0.0 | 3.2 | 0.03 | 2.13 | 0.33 | 97 | 1013.4 |
| 20260503010035 | 12 | 254 | 0.0 | 3.2 | 0.00 | 2.11 | 0.30 | 97 | 1013.4 |
| 20260503004529 | 12 | 254 | 0.0 | 0.0 | 0.00 | 2.11 | 0.30 | 97 | 1013.5 |
| 20260503003027 | 12 | 254 | 0.0 | 0.0 | 0.03 | 2.11 | 0.30 | 97 | 1013.6 |
| 20260503001527 | 12 | 254 | 0.0 | 0.0 | 0.08 | 2.11 | 0.30 | 97 | 1013.7 |
| 20260503000024 | 12 | 254 | 0.0 | 1.6 | 0.18 | 2.11 | 0.30 | 97 | 1014.0 |
| 20260502234528 | 12 | 254 | 0.0 | 1.6 | 0.28 | 2.11 | 0.30 | 97 | 1013.9 |
| 20260502233025 | 12 | 254 | 0.0 | 3.2 | 0.28 | 2.08 | 0.28 | 97 | 1014.0 |
| 20260502231521 | 12 | 254 | 0.0 | 4.8 | 0.23 | 2.03 | 0.23 | 97 | 1014.0 |
| 20260502230026 | 12 | 254 | 0.0 | 6.4 | 0.13 | 1.93 | 0.13 | 97 | 1014.1 |
| 20260502224519 | 12 | 254 | 0.0 | 6.4 | 0.03 | 1.83 | 0.03 | 97 | 1014.2 |
| 20260502223019 | 12 | 244 | 0.0 | 4.8 | 0.00 | 1.80 | 0.00 | 97 | 1014.2 |
| 20260502221517 | 12 | 244 | 0.0 | 0.0 | 0.00 | 1.80 | 0.00 | 97 | 1014.2 |
| 20260502220116 | 12 | 244 | 0.0 | 3.2 | 0.00 | 1.80 | 0.00 | 97 | 1014.1 |
| 20260502214559 | 12 | 244 | 0.0 | 3.2 | 0.00 | 1.80 | 1.80 | 97 | 1014.3 |
| 20260502213101 | 12 | 244 | 0.0 | 4.8 | 0.00 | 1.80 | 1.80 | 97 | 1014.3 |
| 20260502211559 | 12 | 244 | 1.6 | 6.4 | 0.00 | 1.80 | 1.80 | 97 | 1014.2 |
| 20260502210115 | 12 | 240 | 0.0 | 4.8 | 0.00 | 1.80 | 1.80 | 97 | 1014.2 |
| 20260502204559 | 12 | 244 | 0.0 | 4.8 | 0.00 | 1.80 | 1.80 | 97 | 1014.2 |
| 20260502203057 | 12 | 246 | 1.6 | 8.0 | 0.00 | 1.80 | 1.80 | 97 | 1014.2 |
| 20260502201557 | 12 | 282 | 1.6 | 6.4 | 0.00 | 1.80 | 1.80 | 97 | 1014.0 |